EHI
0 0 0 0 0 0 0 0 0 0 0 0 0 0 0 0 0 0 0 0 2 7 18 32 42 50 54 57 60 61 62 65 66 63 56 48 37 22 9 5 6 6 6 6 7 8 6 4 2
0 0 0 0 0 0 0 0 0 0 0 0 0 0 0 0 0 0 0 0 3 8 17 29 42 50 54 57 58 59 60 62 63 62 57 49 36 22 11 7 6 5 5 6 7 7 6 4 3
0 0 0 0 0 0 0 0 0 0 0 0 0 0 0 0 0 0 0 1 4 7 13 25 38 47 52 53 54 54 54 55 57 57 56 47 34 22 15 10 7 5 6 7 6 5 4 3 3
0 0 0 0 0 0 0 0 0 0 0 0 0 0 0 0 0 0 1 3 4 4 9 22 34 42 46 47 48 47 45 47 48 47 47 40 29 21 17 13 8 6 6 6 5 4 3 3 3
0 0 0 0 0 0 0 0 0 0 0 0 0 0 0 0 0 0 1 2 3 2 6 18 29 35 37 38 40 40 39 39 40 37 35 33 26 21 18 13 9 6 6 5 4 3 3 2 1
0 0 0 0 0 0 0 0 0 0 0 0 0 0 0 0 0 0 0 1 1 1 4 13 22 27 29 31 34 35 34 34 33 31 30 30 28 24 18 12 8 6 6 4 3 3 3 1 0
0 0 0 0 0 0 0 0 0 0 0 0 0 0 0 0 0 0 0 0 0 0 3 9 16 20 23 25 26 26 27 27 25 24 25 24 23 22 17 11 7 6 6 4 3 3 2 1 0
0 0 0 0 0 0 0 0 0 0 0 0 0 0 0 0 0 0 0 1 1 1 3 7 12 15 17 17 17 17 18 17 15 14 13 11 10 11 11 8 6 6 5 4 3 3 2 1 0
0 0 0 0 0 0 0 0 0 0 0 0 0 0 0 0 0 0 0 0 0 1 3 6 9 11 12 12 10 10 10 9 8 8 6 4 3 4 5 3 2 4 4 3 3 3 1 0 0
0 0 0 0 0 0 0 0 0 0 0 0 0 0 0 0 0 0 0 0 0 1 2 5 7 9 10 8 6 5 5 6 6 6 5 4 3 3 2 1 0 1 1 2 2 2 1 0 0
0 0 0 0 0 0 0 0 0 0 0 0 0 0 0 0 0 0 0 0 0 0 1 2 4 6 6 4 3 2 3 5 6 6 6 4 3 3 1 0 0 0 0 1 1 1 0 0 0
0 0 0 0 0 0 0 0 0 0 0 0 0 0 0 0 0 0 0 0 0 0 0 1 3 4 3 1 1 0 2 4 6 6 6 4 3 2 1 0 0 0 0 0 0 0 0 0 0
0 0 0 0 0 0 0 0 0 0 0 0 0 0 0 0 0 0 0 0 0 0 0 1 2 2 1 0 0 0 0 2 5 6 5 4 2 1 0 0 0 0 0 0 0 0 0 0 0
0 0 0 0 0 0 0 0 0 0 0 0 0 0 0 0 0 0 0 0 0 0 0 0 1 1 0 0 0 0 0 1 4 5 4 2 1 1 0 0 0 0 0 0 0 0 0 0 0
0 0 0 0 0 0 0 0 0 0 0 0 0 0 0 0 0 0 0 0 0 0 0 0 0 0 0 0 0 0 0 0 2 3 3 1 0 0 0 0 0 0 0 0 0 0 0 0 0
0 0 0 0 0 0 0 0 0 0 0 0 0 0 0 0 0 0 0 0 0 0 0 0 0 0 0 0 0 0 0 0 1 1 1 0 0 0 0 0 0 0 0 0 0 0 0 0 0
0 0 0 0 0 0 0 0 0 0 0 0 0 0 0 0 0 0 0 0 0 0 0 0 0 0 0 0 0 0 0 0 0 0 0 0 0 0 0 0 0 0 0 0 0 0 0 0 0
0 0 0 0 0 0 0 0 0 0 0 0 0 0 0 0 0 0 0 0 0 0 0 0 0 0 0 0 0 0 0 0 0 0 0 0 0 0 0 0 0 0 0 0 0 0 0 0 0
0 0 0 0 0 0 0 0 0 0 0 0 0 0 0 0 0 0 0 0 0 0 0 0 0 0 0 0 0 0 0 0 0 0 0 0 0 0 0 0 0 0 0 0 0 0 0 0 0
0 0 0 0 0 0 0 0 0 0 0 0 0 0 0 0 0 0 0 0 0 0 0 0 0 0 0 0 0 0 0 0 0 0 0 0 0 0 0 0 0 0 0 0 0 0 0 0 0
0 0 0 0 0 0 0 0 0 0 0 0 0 0 0 0 0 0 0 0 0 0 0 0 0 0 0 0 0 0 0 0 0 0 0 0 0 0 0 0 0 0 0 0 0 0 0 0 0
0 0 0 0 0 0 0 0 0 0 0 0 0 0 0 0 0 0 0 0 0 0 0 0 0 0 0 0 0 0 0 0 0 0 0 0 0 0 0 0 0 0 0 0 0 0 0 0 0
0 0 0 0 0 0 0 0 0 0 0 0 0 0 0 0 0 0 0 0 0 0 0 0 0 0 0 0 0 0 0 0 0 0 0 0 0 0 0 0 0 0 0 0 0 0 0 0 0
0 0 0 0 0 0 0 0 0 0 0 0 0 0 0 0 0 0 0 0 0 0 0 0 0 0 0 0 0 0 0 0 0 0 0 0 0 0 0 0 0 0 0 0 0 0 0 0 0
0 0 0 0 0 0 0 0 0 0 0 0 0 0 0 0 0 0 0 0 0 0 0 0 0 0 0 0 0 0 0 0 0 0 0 0 0 0 0 0 0 0 0 0 0 0 0 0 0
0 0 0 0 0 0 0 0 0 0 0 0 0 0 0 0 0 0 0 0 0 0 0 0 0 0 0 0 0 0 0 0 0 0 0 0 0 0 0 0 0 0 0 0 0 0 0 0 0
0 0 0 0 0 0 0 0 0 0 0 0 0 0 0 0 0 0 0 0 0 0 0 0 0 0 0 0 0 0 0 0 0 0 0 0 0 0 0 0 0 0 0 0 0 0 0 0 0
0 0 0 0 0 0 0 0 0 0 0 0 0 0 0 0 0 0 0 0 0 0 0 0 0 0 0 0 0 0 0 0 0 0 0 0 0 0 0 0 0 0 0 0 0 0 0 0 0
0 0 0 0 0 0 0 0 0 0 0 0 0 0 0 0 0 0 0 0 0 0 0 0 0 0 0 0 0 0 0 0 0 0 0 0 0 0 0 0 0 0 0 0 0 0 0 0 0
0 0 0 0 0 0 0 0 0 0 0 0 0 0 0 0 0 0 0 0 0 0 0 0 0 0 0 0 0 0 0 0 0 0 0 0 0 0 0 0 0 0 0 0 0 0 0 0 0
Wind_Speed
5 4 3 4 5 2 5 5 3 2 2 2 2 3 4 4 4 3 3 3 3 1 4 8 11 12 14 15 15 14 14 15 15 17 18 18 18 18 17 17 16 15 15 15 16 16 16 16 16
2 3 4 5 4 4 6 5 5 3 3 4 3 1 2 4 2 3 5 6 4 1 3 5 9 11 12 14 15 15 15 15 15 16 17 17 18 18 17 17 16 16 15 15 15 15 16 15 15
2 4 4 4 4 7 5 3 4 3 4 2 3 2 1 3 3 3 4 6 3 2 1 3 7 10 11 13 15 15 16 16 15 15 15 16 17 17 17 16 16 15 14 14 15 15 15 15 14
4 5 4 2 7 5 3 1 1 3 4 2 2 5 4 2 1 3 6 4 3 3 2 1 6 8 10 11 14 15 16 16 15 15 15 16 17 17 16 16 15 14 14 15 15 15 14 14 13
5 5 3 3 6 4 4 3 1 1 3 3 2 4 5 2 2 3 5 4 3 2 2 1 3 7 9 11 12 14 15 16 16 15 15 16 16 16 16 15 14 15 15 15 15 15 14 13 13
5 4 3 5 6 4 4 3 1 2 3 3 2 4 6 1 3 4 4 4 3 1 1 1 1 4 7 9 11 12 13 15 15 16 16 16 16 16 16 15 15 15 16 15 15 14 14 13 12
5 4 3 3 4 5 4 2 2 3 4 4 2 4 5 3 2 4 4 4 3 2 1 1 1 2 5 7 8 11 11 11 13 14 14 13 13 15 16 15 15 15 15 15 14 14 13 12 12
4 4 2 3 4 5 3 1 2 3 6 4 3 5 6 5 4 5 5 4 3 2 1 1 1 1 2 4 7 9 10 10 11 12 12 12 12 13 14 13 14 14 14 14 13 13 13 11 11
4 3 4 5 5 4 2 2 3 3 4 4 4 6 8 6 5 5 3 4 4 4 3 2 2 2 2 2 4 7 8 9 9 9 11 10 7 8 9 10 12 13 13 13 13 12 11 9 8
3 3 6 4 4 3 3 4 4 5 6 6 7 7 7 6 5 5 5 5 5 5 4 3 3 2 2 3 2 3 4 5 5 6 7 6 6 6 7 10 12 12 12 12 12 11 10 6 4
3 5 4 5 5 4 5 6 5 6 10 10 10 10 8 7 7 7 7 7 7 6 6 5 4 4 3 3 2 1 2 3 4 6 7 6 5 5 5 5 6 7 9 7 8 7 4 4 3
3 5 5 5 4 4 6 6 6 10 15 11 11 11 9 10 10 9 9 8 7 6 7 6 5 5 4 4 3 2 3 3 3 5 7 6 5 5 5 4 5 5 4 5 4 4 4 4 4
4 5 5 7 8 8 9 11 10 14 16 12 11 11 12 11 10 9 9 8 7 7 7 7 6 6 5 4 3 3 3 4 5 4 6 7 6 6 6 5 5 5 4 5 5 5 5 4 4
3 5 7 7 8 6 8 12 9 14 10 10 10 11 12 11 10 9 8 9 8 8 7 7 7 7 6 5 4 4 3 4 4 4 6 8 6 6 6 6 6 5 5 5 5 5 5 4 3
2 5 7 5 5 4 4 10 8 10 7 9 10 10 11 10 8 9 8 8 8 7 7 6 7 7 7 6 6 4 4 4 4 4 6 7 7 7 7 6 6 6 5 6 4 5 3 3 3
1 2 5 4 2 3 2 11 8 5 5 9 9 9 9 8 8 8 7 6 7 6 6 6 6 6 7 6 5 4 4 4 4 4 5 6 7 8 7 6 6 6 6 6 6 5 4 4 4
1 3 5 6 3 2 3 10 10 7 6 9 9 7 8 8 8 7 6 6 6 6 5 6 6 6 6 6 5 4 4 3 4 4 4 5 7 7 7 6 6 7 6 6 6 5 5 5 4
3 4 5 6 4 3 6 11 14 9 6 8 8 8 7 7 8 6 5 5 5 5 4 4 4 5 6 5 4 3 3 3 3 4 5 5 6 7 7 6 7 7 6 6 6 6 5 5 4
3 5 8 9 6 5 8 12 13 9 6 7 7 7 7 7 6 5 4 4 4 3 3 4 4 5 5 4 4 4 5 4 4 4 5 6 6 6 6 6 7 7 7 7 8 5 6 4 3
5 7 8 8 4 4 7 11 9 6 5 5 7 7 7 7 7 6 4 3 1 2 3 3 5 4 5 4 4 4 4 4 4 4 5 6 6 7 6 7 7 8 7 8 8 6 5 3 4
6 6 6 7 7 3 5 8 5 5 5 7 8 7 7 7 7 6 5 3 2 2 3 3 4 5 5 5 3 3 3 3 3 3 4 5 7 8 8 8 7 7 8 8 8 8 8 6 4
5 4 5 6 5 4 3 5 7 6 8 9 10 10 9 9 8 6 5 4 3 2 1 2 3 4 4 5 5 6 5 5 4 4 4 4 6 6 7 8 8 8 7 8 8 8 6 7 6
5 3 3 4 2 3 2 2 7 6 9 11 11 11 11 10 8 8 6 4 4 3 1 1 2 2 3 4 5 5 5 4 3 3 4 4 4 5 6 7 8 7 7 8 8 7 7 6 6
2 2 2 1 1 2 2 1 6 4 8 10 10 11 11 10 9 8 7 5 5 4 2 1 1 1 1 3 4 5 5 5 4 4 5 4 3 3 5 6 6 6 6 7 8 8 8 7 6
2 3 4 5 3 3 2 1 5 4 6 6 9 10 11 10 9 9 8 7 6 6 5 4 3 2 1 2 2 3 4 4 5 4 4 3 3 3 4 5 6 5 5 6 6 6 6 7 7
0 2 2 1 3 4 3 3 5 3 4 5 6 7 8 10 9 9 8 7 6 6 6 6 6 4 3 3 2 1 2 2 2 2 2 3 3 3 3 4 5 5 5 5 5 5 6 5 6
0 1 2 2 1 3 4 5 5 2 5 6 7 8 9 9 9 9 9 8 7 7 7 7 6 6 5 5 4 4 2 2 2 2 2 1 1 1 2 3 3 3 4 5 5 4 5 5 5
1 2 1 1 1 3 5 4 4 5 6 6 7 8 8 8 8 9 8 8 8 7 7 7 8 7 6 6 4 4 3 3 2 2 2 1 1 1 1 2 3 3 3 4 4 4 4 5 5
1 1 1 1 2 1 4 5 2 2 2 3 5 5 6 7 8 8 8 8 9 9 9 9 8 8 8 7 6 6 5 4 3 3 2 1 1 1 1 1 1 2 3 4 3 3 4 5 5
1 1 2 1 1 2 2 6 2 0 1 2 3 5 5 6 7 7 8 9 9 10 10 10 9 9 8 8 8 7 6 5 5 4 3 2 2 1 1 1 0 1 2 3 4 4 4 5 6
Wind_Direction
6 13 53 58 62 65 235 235 220 225 224 247 255 228 215 210 190 218 310 344 342 151 170 171 165 164 168 165 162 159 156 154 152 151 151 151 150 149 149 147 144 140 137 134 131 127 124 122 120
18 32 54 66 114 206 250 230 223 221 262 307 306 283 262 266 298 323 341 334 342 112 154 166 165 166 168 168 165 163 162 160 157 156 155 155 153 152 152 150 147 143 140 137 133 130 127 123 122
54 48 83 98 174 203 226 215 218 277 303 336 326 318 262 274 316 327 322 318 353 44 122 167 165 169 170 171 170 169 167 164 163 161 160 159 157 155 154 153 148 144 141 139 136 133 130 128 127
69 50 59 121 225 227 228 225 265 320 330 346 345 309 293 285 314 311 318 346 23 14 12 161 163 168 173 171 173 175 173 170 168 167 164 163 160 158 156 152 147 144 144 142 139 137 135 133 132
59 80 99 232 244 250 251 261 267 303 309 326 341 297 283 293 323 333 344 7 21 6 355 345 169 173 178 175 172 175 179 176 174 172 170 167 165 161 157 151 149 149 149 147 144 143 140 138 138
64 76 135 231 248 265 264 255 262 271 277 292 287 279 266 271 1 348 356 4 359 339 339 336 204 187 181 183 179 175 180 182 179 177 175 171 168 163 158 155 154 156 155 153 150 148 147 144 143
106 115 184 222 262 271 255 240 215 245 267 258 239 265 274 287 316 340 350 357 345 323 317 303 220 192 182 182 184 180 178 183 183 180 176 173 169 165 161 159 161 162 160 157 155 153 151 149 147
119 116 182 227 237 257 263 284 241 229 258 249 212 232 255 263 308 339 343 336 324 308 280 265 237 206 179 184 193 185 180 182 182 181 176 173 169 165 163 163 165 166 163 160 159 158 156 152 150
91 104 217 220 215 248 273 300 291 273 255 259 237 236 252 273 308 319 323 323 303 287 265 241 225 215 190 189 201 192 183 183 182 177 172 168 166 164 164 166 167 168 165 163 163 161 157 149 149
112 187 227 219 213 248 280 269 279 289 275 267 266 260 265 268 275 278 271 271 274 268 260 241 226 219 202 201 196 200 188 182 179 173 169 168 164 165 163 167 170 171 167 166 166 162 153 141 141
168 211 236 246 242 254 273 272 254 252 262 251 259 268 264 262 261 259 255 243 243 253 255 238 225 211 202 197 186 194 185 177 176 176 170 166 162 161 160 162 168 168 165 163 164 156 149 149 152
210 240 236 255 256 258 261 266 261 238 249 254 257 262 262 262 259 254 256 251 242 241 248 238 222 212 203 197 189 185 191 181 174 182 171 165 164 165 166 169 168 168 166 162 158 156 153 156 162
230 261 256 257 267 258 258 255 261 259 261 267 267 262 256 257 260 257 249 249 240 239 243 235 218 211 201 192 191 186 196 187 176 180 178 169 168 170 170 170 172 171 166 166 162 162 164 166 171
245 262 276 273 267 264 263 270 261 266 270 269 266 263 261 255 255 260 256 252 246 240 240 225 212 204 195 193 189 187 191 193 176 176 184 173 171 172 172 173 175 176 173 171 168 169 171 176 179
283 294 295 270 262 266 286 284 251 266 285 281 275 271 268 262 257 254 252 250 247 240 232 217 211 198 194 194 192 189 188 190 180 175 183 180 175 174 175 176 179 179 173 168 164 163 164 175 185
332 319 302 291 274 269 263 278 280 284 300 289 281 277 276 271 260 257 253 253 252 236 226 219 219 200 193 192 188 184 187 189 185 177 178 183 181 176 175 179 183 177 172 174 175 173 175 185 189
358 301 284 298 273 274 247 275 294 308 303 292 288 284 283 283 277 264 254 251 246 230 217 216 209 205 196 191 185 178 179 194 190 177 176 185 185 182 180 183 182 176 176 180 181 180 177 185 192
260 273 280 287 295 289 275 279 294 306 301 297 299 297 294 290 288 280 263 256 247 230 210 209 205 205 195 186 172 171 181 195 190 180 182 186 187 185 183 185 181 176 180 184 184 184 183 184 184
250 268 284 283 285 292 281 288 298 309 321 319 313 314 314 305 292 293 277 259 236 212 199 204 204 210 192 175 173 177 189 191 185 189 187 192 187 187 187 188 183 181 188 191 184 178 181 183 161
255 275 284 292 298 288 296 295 300 311 317 328 332 327 326 326 332 330 317 304 246 207 204 204 211 206 196 186 179 180 184 185 182 186 190 197 192 190 194 191 191 189 189 190 187 173 174 179 174
259 246 262 281 310 296 308 307 316 333 346 351 352 347 347 344 333 333 339 328 308 245 212 214 214 209 196 186 175 180 169 160 168 181 197 204 199 196 196 191 194 193 191 193 193 186 183 183 188
272 238 245 279 313 317 351 310 313 336 350 358 354 355 354 350 346 346 343 349 343 313 260 217 210 198 194 184 183 183 183 184 190 189 196 203 202 202 201 194 193 196 194 192 194 192 192 183 189
242 266 267 281 279 298 308 268 299 340 349 352 351 353 354 351 352 357 356 350 350 344 330 245 206 182 190 188 189 184 192 191 182 178 186 198 199 199 202 198 192 193 196 194 193 194 193 192 194
248 317 320 13 52 305 289 243 298 337 337 340 348 352 351 354 358 359 2 5 6 4 11 19 89 133 179 180 184 188 191 184 180 191 190 190 188 194 199 199 195 194 197 196 195 194 195 199 199
60 47 13 2 4 275 309 266 275 317 336 340 344 347 349 356 1 1 4 7 10 9 17 38 52 56 75 121 164 183 189 183 192 195 185 181 188 196 198 197 196 194 196 196 191 189 198 203 201
315 128 142 249 277 298 330 273 273 313 337 350 352 352 359 1 3 7 13 17 11 11 18 35 41 46 52 59 52 69 138 167 183 181 174 184 193 194 188 196 199 195 193 195 190 189 196 205 210
140 144 172 153 295 294 295 297 303 342 0 1 1 6 8 4 7 12 17 21 18 17 22 33 38 37 37 36 33 42 62 111 122 128 146 167 158 171 178 191 196 195 195 196 191 195 200 203 215
122 150 91 109 353 309 309 301 298 323 342 352 356 0 2 5 9 12 16 19 19 24 28 35 37 36 34 32 32 42 54 82 94 103 109 109 104 127 168 201 205 192 197 199 193 196 202 208 218
35 66 98 116 152 178 303 290 256 266 318 339 341 348 360 3 8 11 14 19 24 27 30 32 33 34 32 32 34 41 40 50 67 73 80 95 72 68 95 197 210 206 199 200 196 201 209 220 226
201 204 171 169 269 189 226 276 338 121 333 359 350 353 3 8 9 11 16 20 24 27 28 29 29 31 28 27 31 35 34 41 48 48 42 53 54 32 6 13 334 253 217 210 203 208 215 224 230